Location: Newark
(54.0500°N, 12.8333°E)
Time: 01:21:10
(UTC+00:00)

Transit 2A - All Passes

Search period start: 18 January 2020 00:00
Search period end: 28 January 2020 00:00
Orbit: 601 x 957 km, 66.7° (Epoch: 17 January)

Date Brightness Start Highest point End Pass type
(mag) Time Alt. Az. Time Alt. Az. Time Alt. Az.
18 Jan - 00:12:15 10° WNW 00:15:24 19° NNW 00:18:37 10° NNE night (unlit)
18 Jan - 01:57:07 10° NNW 02:00:09 18° N 02:03:18 10° NE visible
18 Jan - 03:40:17 10° NNW 03:44:29 37° NE 03:49:00 10° ESE visible
18 Jan - 05:23:19 10° NW 05:27:49 54° SW 05:32:41 10° SSE visible
18 Jan - 20:10:45 10° SSE 20:14:16 24° ESE 20:17:45 10° ENE night (unlit)
18 Jan - 21:52:41 10° SW 21:57:02 63° NW 22:01:24 10° NE night (unlit)
18 Jan - 23:37:38 10° WNW 23:40:59 21° NNW 23:44:25 10° NNE night (unlit)
19 Jan - 01:22:48 10° NW 01:25:43 17° N 01:28:42 10° NE visible
19 Jan - 03:06:11 10° NNW 03:10:12 30° NNE 03:14:27 10° E visible
19 Jan - 04:49:09 10° NW 04:53:44 73° SW 04:58:43 10° SSE visible
19 Jan - 06:33:41 10° WNW 06:36:13 14° WSW 06:38:50 10° SW visible
19 Jan - 19:37:30 10° SSE 19:40:19 17° ESE 19:43:08 10° ENE night (unlit)
19 Jan - 21:18:29 10° SW 21:22:52 85° NW 21:27:16 10° NE night (unlit)
19 Jan - 23:03:01 10° W 23:06:37 24° NNW 23:10:16 10° NNE night (unlit)
20 Jan - 00:48:25 10° NW 00:51:16 16° N 00:54:10 10° NE night (unlit)
20 Jan - 02:32:05 10° NNW 02:35:53 26° NNE 02:39:52 10° E visible
20 Jan - 04:15:00 10° NW 04:19:36 84° NE 04:24:36 10° SE visible
20 Jan - 05:58:53 10° WNW 06:02:17 20° WSW 06:05:54 10° SSW visible
20 Jan - 19:04:55 10° SE 19:06:27 12° ESE 19:07:58 10° E night (unlit)
20 Jan - 20:44:24 10° SSW 20:48:45 70° SE 20:53:07 10° NE night (unlit)
20 Jan - 22:28:27 10° W 22:32:16 29° NNW 22:36:09 10° NNE night (unlit)
21 Jan - 00:13:56 10° NW 00:16:48 17° N 00:19:45 10° NE night (unlit)
21 Jan - 01:57:57 10° NNW 02:01:30 22° NNE 02:05:13 10° ENE visible
21 Jan - 03:40:53 10° NW 03:45:26 64° NE 03:50:23 10° SE visible
21 Jan - 05:24:22 10° WNW 05:28:19 27° WSW 05:32:34 10° S visible
21 Jan - 20:10:27 10° SSW 20:14:41 50° ESE 20:18:55 10° NE night (unlit)
21 Jan - 21:53:57 10° WSW 21:57:58 35° NW 22:02:03 10° NNE night (unlit)
21 Jan - 23:39:23 10° NW 23:42:21 17° N 23:45:23 10° NNE night (unlit)
22 Jan - 01:23:47 10° NNW 01:27:06 20° NNE 01:30:34 10° ENE visible
22 Jan - 03:06:48 10° NW 03:11:14 49° NE 03:16:02 10° ESE visible
22 Jan - 04:50:01 10° NW 04:54:20 37° WSW 04:58:58 10° S visible
22 Jan - 19:36:40 10° S 19:40:40 35° ESE 19:44:38 10° NE night (unlit)
22 Jan - 21:19:31 10° WSW 21:23:43 45° NW 21:27:58 10° NE night (unlit)
22 Jan - 23:04:47 10° WNW 23:07:55 19° NNW 23:11:07 10° NNE night (unlit)
23 Jan - 00:49:34 10° NNW 00:52:41 18° NNE 00:55:55 10° ENE night (unlit)
23 Jan - 02:32:42 10° NNW 02:36:59 39° NE 02:41:36 10° ESE visible
23 Jan - 04:15:46 10° NW 04:20:17 51° WSW 04:25:11 10° SSE visible
23 Jan - 19:03:05 10° S 19:06:41 25° ESE 19:10:16 10° ENE night (unlit)
23 Jan - 20:45:11 10° SW 20:49:30 59° NW 20:53:51 10° NE night (unlit)
23 Jan - 22:30:10 10° WNW 22:33:30 21° NNW 22:36:55 10° NNE night (unlit)
24 Jan - 00:15:17 10° NW 00:18:14 17° N 00:21:18 10° NE night (unlit)
24 Jan - 01:58:36 10° NNW 02:02:42 32° NNE 02:07:04 10° E visible
24 Jan - 03:41:35 10° NW 03:46:12 69° SW 03:51:14 10° SSE visible
24 Jan - 05:26:18 10° W 05:28:39 14° WSW 05:31:05 10° SW visible
24 Jan - 18:29:46 10° SSE 18:32:45 18° ESE 18:35:42 10° ENE night (unlit)
24 Jan - 20:10:57 10° SW 20:15:19 80° NW 20:19:44 10° NE night (unlit)
24 Jan - 21:55:33 10° W 21:59:07 24° NNW 22:02:46 10° NNE night (unlit)
24 Jan - 23:40:54 10° NW 23:43:47 17° N 23:46:46 10° NE night (unlit)
25 Jan - 01:24:30 10° NNW 01:28:23 27° NNE 01:32:29 10° E night (unlit)
25 Jan - 03:07:25 10° NW 03:12:04 89° NE 03:17:09 10° SE visible
25 Jan - 04:51:24 10° WNW 04:54:44 19° WSW 04:58:15 10° SSW visible
25 Jan - 17:56:59 10° SE 17:58:51 13° ESE 18:00:44 10° E visible
25 Jan - 19:36:50 10° SSW 19:41:12 75° SE 19:45:35 10° NE night (unlit)
25 Jan - 21:20:59 10° W 21:24:46 28° NNW 21:28:38 10° NNE night (unlit)
25 Jan - 23:06:27 10° NW 23:09:20 17° N 23:12:18 10° NE night (unlit)
26 Jan - 00:50:23 10° NNW 00:54:01 23° NNE 00:57:52 10° ENE night (unlit)
26 Jan - 02:33:18 10° NW 02:37:55 68° NE 02:42:56 10° SE visible
26 Jan - 04:16:51 10° WNW 04:20:46 26° WSW 04:24:58 10° S visible
26 Jan - 19:02:52 10° SSW 19:07:07 53° ESE 19:11:24 10° NE visible
26 Jan - 20:46:28 10° W 20:50:27 34° NNW 20:54:32 10° NNE night (unlit)
26 Jan - 22:31:55 10° NW 22:34:53 17° N 22:37:56 10° NE night (unlit)
27 Jan - 00:16:13 10° NNW 00:19:38 20° NNE 00:23:12 10° ENE night (unlit)
27 Jan - 01:59:12 10° NW 02:03:43 52° NE 02:08:37 10° ESE night (unlit)
27 Jan - 03:42:29 10° NW 03:46:46 35° WSW 03:51:25 10° S visible
27 Jan - 18:29:03 10° S 18:33:05 38° ESE 18:37:08 10° NE visible
27 Jan - 20:12:02 10° WSW 20:16:11 43° NW 20:20:26 10° NE visible
27 Jan - 21:57:20 10° WNW 22:00:26 18° NNW 22:03:38 10° NNE night (unlit)
27 Jan - 23:42:01 10° NNW 23:45:13 19° NNE 23:48:33 10° ENE night (unlit)
